This demonstration page uses our WeatherBlox Daily Observations layout. Learn more.

Left ArrowRight Arrow

47.50024, -111.30081

Hourly Observations for April 4, 2016

Temp ( °F °C ) Dew Point ( °F °C ) Humidity (%) Winds ( mph kmh ) Pressure ( in mb ) Visibility ( mi km ) Precip ( " mm )
12:53 am 00:53 Clear 40 4.4 30 -1.1 68 68 S 5 7 30.01 1016 10 16 0.00 0.00
1:53 am 01:53 Clear 41 5 30 -1.1 65 65 SE 5 7 30.00 1016 10 16 0.00 0.00
2:53 am 02:53 Clear 35 1.7 27 -2.8 72 72 WSW 5 7 30.01 1016 10 16 0.00 0.00
3:53 am 03:53 Clear 36 2.2 28 -2.2 73 73 S 12 19 29.97 1015 10 16 0.00 0.00
4:53 am 04:53 Clear 37 2.8 27 -2.8 67 67 SSW 6 9 29.97 1015 10 16 0.00 0.00
5:53 am 05:53 Clear 39 3.9 29 -1.7 67 67 S 10 17 29.95 1014 10 16 0.00 0.00
6:53 am 06:53 Clear 44 6.7 30 -1.1 58 58 SSW 14 22 29.93 1014 10 16 0.00 0.00
7:53 am 07:53 Sunny 48 8.9 30 -1.1 50 50 S 17 28 29.93 1014 10 16 0.00 0.00
8:53 am 08:53 Sunny 54 12.2 30 -1.1 40 40 SSW 20 31 29.92 1013 10 16 0.00 0.00
9:53 am 09:53 Sunny 59 15 31 -0.6 35 35 S 20 31 29.90 1013 10 16 0.00 0.00
10:53 am 10:53 Sunny 63 17.2 31 -0.6 30 30 S 21 33 29.88 1012 10 16 0.00 0.00
11:53 am 11:53 Sunny 65 18.3 30 -1.1 27 27 S 12 19 29.85 1011 10 16 0.00 0.00
12:53 pm 12:53 Sunny 68 20 27 -2.8 21 21 SW 16 26 29.83 1010 10 16 0.00 0.00
1:53 pm 13:53 Sunny 71 21.7 28 -2.2 20 20 WSW 20 31 29.78 1008 10 16 0.00 0.00
2:53 pm 14:53 Sunny 69 20.6 28 -2.2 22 22 SW 18 30 29.77 1008 10 16 0.00 0.00
3:53 pm 15:53 Cloudy with Light Rain 58 14.4 38 3.3 48 48 WSW 14 22 29.85 1011 10 16 0.00 0.03
4:53 pm 16:53 Cloudy with Light Rain 54 12.2 36 2.2 51 51 WSW 22 35 29.86 1011 10 16 0.00 0.03
5:53 pm 17:53 Cloudy with Light Rain 51 10.6 38 3.3 61 61 SW 15 24 29.89 1012 10 16 0.00 0.03
6:53 pm 18:53 Cloudy 46 7.8 42 5.6 86 86 SW 10 17 29.89 1012 10 16 0.02 0.51
7:53 pm 19:53 Cloudy 45 7.2 30 -1.1 56 56 W 25 41 29.91 1013 10 16 0.00 0.00
8:53 pm 20:53 Cloudy 43 6.1 30 -1.1 60 60 SW 22 35 29.91 1013 10 16 0.00 0.00
9:53 pm 21:53 Clear 41 5 26 -3.3 55 55 SW 23 37 29.93 1013 10 16 0.00 0.00
10:53 pm 22:53 Clear 41 5 24 -4.4 51 51 SW 28 44 29.92 1013 10 16 0.00 0.00
11:53 pm 23:53 Clear 39 3.9 24 -4.4 55 55 SW 23 37 29.92 1013 10 16 0.00 0.00

Powered by AerisWeather